Вернуться в каталог

FENGYUN 1C DEB

АктивенSSO
NORAD 30114·DEBRIS·🇨🇳 China

Запущен May 10, 1999 с Taiyuan Satellite Launch Center

Loading…

Ближайшие Пролёты (ближайшие 24 часа)

TLE

СвежийSource: Space-Track

Эпоха: Sep 14, 2026, 18:21 UTC

1 30114U 99025RT  26257.76502509  .00000219  00000-0  14421-3 0  9997
2 30114  98.7548 257.5151 0082180  59.4106 115.8219 14.09834129 10438

Отслеживайте FENGYUN 1C DEB в реальном времени с AllMySat

Download on the App Store